Flag for U.S.A. Weather past 2 weeks in Freehold, New Jersey, U.S.A.

Now
63 °F

Sunny.


Feels Like: 63 °F
Forecast: 54 / 72 °F
Wind: No wind

Location: Belmar-Farmdale

Current Time: Sep 16, 2014 at 8:20:07 PM

Latest Report: Sep 16, 2014 at 7:55 PM


Visibility: 10 mi

Pressure: 30.00 "Hg

Humidity: 77%

Dew point: 55 °F

Location of FreeholdLocation

Historic Weather in Freehold — Graph

°F

Freehold temperature yesterday

Maximum temperature yesterday: 68 °F (at 2:55 PM)
Minimum temperature yesterday: 48 °F (at 5:15 AM)
Average temperature yesterday: 59 °F

Past Weeks' High & Low Weather Summary

 TemperatureHumidityPressure
High91 °F (Sep 2, 3:55 PM)89% (Sep 2, 12:55 AM)30.32 "Hg (Sep 2, 12:55 AM)
Low48 °F (Sep 15, 5:15 AM)43% (Sep 3, 3:15 PM)29.84 "Hg (Sep 2, 5:35 PM)
Average70 °F70%30.08 "Hg
* Reported Sep 1 7:15 PM — Sep 16 7:15 PM, Freehold, Weather by CustomWeather, © 2014

Note: Actual official high and low records may vary slightly from our data, if they occured in-between our weather recording intervals... More about our weather records

Advertising

Freehold weather history for previous 24 hours

 ConditionsComfort  
Time TempWeatherWind HumidityBarometerVisibility
7:15 PM
Sep 16
64 °FPartly sunny.No wind73%29.99 "Hg10 mi
6:35 PM66 °FOvercast.No wind68%29.99 "Hg10 mi
6:15 PM66 °FOvercast.No wind73%29.98 "Hg10 mi
5:55 PM66 °FOvercast.No wind73%29.98 "Hg10 mi
5:35 PM66 °FOvercast.5 mph68%29.98 "Hg10 mi
5:15 PM66 °FOvercast.5 mph68%29.98 "Hg10 mi
4:55 PM66 °FOvercast.No wind68%29.98 "Hg10 mi
4:35 PM66 °FPartly sunny.3 mph68%29.98 "Hg10 mi
4:15 PM66 °FPassing clouds.6 mph68%29.98 "Hg10 mi
3:55 PM64 °FBroken clouds.6 mph73%29.98 "Hg10 mi
3:35 PM66 °FPartly sunny.6 mph73%29.98 "Hg10 mi
3:15 PM64 °FScattered clouds.6 mph73%29.97 "Hg10 mi
2:55 PM64 °FBroken clouds.6 mph78%29.98 "Hg10 mi
2:35 PM64 °FCloudy.8 mph73%29.98 "Hg10 mi
1:55 PM63 °FMostly cloudy.7 mph77%29.98 "Hg10 mi
1:35 PM63 °FLow clouds.7 mph83%29.99 "Hg8 mi
1:15 PM63 °FLow clouds.8 mph77%29.99 "Hg4 mi
12:35 PM63 °FMostly cloudy.9 mph83%29.99 "Hg8 mi
12:15 PM63 °FLow clouds.9 mph83%29.98 "Hg9 mi
11:55 AM61 °FMostly cloudy.10 mph83%29.99 "Hg9 mi
11:35 AM61 °FMore clouds than sun.9 mph83%30.00 "Hg9 mi
11:15 AM61 °FMore clouds than sun.6 mph83%30.00 "Hg9 mi
10:55 AM63 °FMostly cloudy.9 mph77%30.00 "Hg9 mi
10:35 AM63 °FMore clouds than sun.7 mph83%30.00 "Hg8 mi
10:15 AM63 °FOvercast.No wind83%30.00 "Hg10 mi
9:55 AM63 °FOvercast.No wind83%29.99 "Hg10 mi
9:35 AM63 °FOvercast.3 mph83%29.99 "Hg10 mi
9:15 AM61 °FMostly cloudy.No wind83%29.99 "Hg9 mi
8:55 AM61 °FMostly cloudy.3 mph83%29.99 "Hg9 mi
8:35 AM61 °FOvercast.3 mph77%30.00 "Hg9 mi
7:55 AM59 °FOvercast.No wind82%30.01 "Hg3 mi
7:35 AM61 °FMostly cloudy.3 mph77%30.00 "Hg2 mi
7:15 AM61 °FMostly cloudy.No wind77%30.00 "Hg10 mi
6:55 AM59 °FPassing clouds.6 mph77%29.99 "Hg10 mi
6:35 AM57 °FPartly cloudy.5 mph82%30.00 "Hg10 mi
6:15 AM57 °FPassing clouds.No wind77%30.01 "Hg10 mi
5:55 AM57 °FClear.3 mph77%30.01 "Hg10 mi
5:35 AM57 °FClear.5 mph82%30.01 "Hg10 mi
5:15 AM57 °FClear.No wind77%30.02 "Hg10 mi
4:55 AM55 °FClear.3 mph77%30.02 "Hg10 mi
4:35 AM57 °FPassing clouds.5 mph77%30.03 "Hg10 mi
4:15 AM57 °FPassing clouds.5 mph82%30.04 "Hg10 mi
3:55 AM57 °FPassing clouds.6 mph77%30.05 "Hg10 mi
3:35 AM59 °FOvercast.5 mph77%30.05 "Hg10 mi
3:15 AM57 °FOvercast.3 mph77%30.05 "Hg10 mi
2:55 AM57 °FPassing clouds.5 mph77%30.05 "Hg10 mi
2:35 AM57 °FClear.5 mph77%30.06 "Hg10 mi
2:15 AM57 °FClear.3 mph77%30.06 "Hg10 mi
1:55 AM57 °FClear.3 mph77%30.07 "Hg10 mi
1:35 AM57 °FClear.3 mph77%30.07 "Hg10 mi
1:15 AM57 °FClear.5 mph77%30.08 "Hg10 mi
12:55 AM57 °FClear.No wind77%30.08 "Hg10 mi
12:35 AM57 °FClear.5 mph77%30.08 "Hg10 mi
12:15 AM59 °FClear.5 mph72%30.09 "Hg10 mi
11:55 PM
Sep 15
57 °FClear.5 mph72%30.09 "Hg10 mi
11:35 PM57 °FClear.3 mph72%30.09 "Hg10 mi
11:15 PM57 °FClear.3 mph72%30.10 "Hg10 mi
10:55 PM57 °FClear.5 mph77%30.09 "Hg10 mi
10:35 PM57 °FClear.3 mph77%N/A10 mi
10:15 PM59 °FClear.3 mph72%30.10 "Hg10 mi
9:15 PM59 °FClear.3 mph68%30.10 "Hg10 mi
8:55 PM59 °FClear.5 mph68%30.12 "Hg10 mi
8:35 PM59 °FClear.No wind68%30.12 "Hg10 mi
8:15 PM61 °FClear.3 mph63%30.13 "Hg10 mi
Weather by CustomWeather, © 2014

See weather overviewHow to use our weather pages